Weather reports worldwide

Advertisment
Linton-On-Ouse, United Kingdom (3266): temperature & dewpoint: 17.04.2019 17:00:00 - 23.04.2019 17:00:00 (BST)Linton-On-Ouse, United Kingdom (3266): temperature -20cm & temperature -100cm: 17.04.2019 17:00:00 - 23.04.2019 17:00:00 (BST)Linton-On-Ouse, United Kingdom (3266): wind speed: 17.04.2019 17:00:00 - 23.04.2019 17:00:00 (BST)Linton-On-Ouse, United Kingdom (3266): wind direction: 17.04.2019 17:00:00 - 23.04.2019 17:00:00 (BST)Linton-On-Ouse, United Kingdom (3266): reduced air pressure: 17.04.2019 17:00:00 - 23.04.2019 17:00:00 (BST)Linton-On-Ouse, United Kingdom (3266): visibility: 17.04.2019 17:00:00 - 23.04.2019 17:00:00 (BST)Linton-On-Ouse, United Kingdom (3266): precipitation: 17.04.2019 17:00:00 - 23.04.2019 17:00:00 (BST)
Date & Time tt [°C] td [°C] tt -20cm [°C] tt -100cm [°C] ff [km/h] ff [kn] dd ppp [hPa] vv [km] rr [mm]
23.04.2019 17:00:00 15,3 6,5 - - 21 11 ENE 999,6 10 0,0
23.04.2019 16:00:00 15,7 6,2 - - 21 11 E 999,8 10 0,0
23.04.2019 15:00:00 15,8 6,7 - - 21 11 ENE 1000,1 10 0,0
23.04.2019 14:00:00 15,5 8,1 - - 18 10 E 1000,6 10 0,0
23.04.2019 13:00:00 14,1 6,6 - - 15 8 E 1000,9 10 0,0
23.04.2019 12:00:00 13,7 7,0 - - 16 9 E 1001,3 10 0,0
23.04.2019 11:00:00 13,6 7,5 - - 13 7 E 1001,6 10 0,0
23.04.2019 10:00:00 12,6 7,3 10,0 8,9 16 9 ENE 1001,7 10 0,0
23.04.2019 09:00:00 11,6 8,2 - - 9 5 NNE 1001,9 10 0,0
23.04.2019 08:00:00 8,0 7,1 - - 9 5 NNW 1001,9 3,8 0,0
23.04.2019 07:00:00 6,1 5,6 - - 11 6 NW 1002,2 2,5 0,0
23.04.2019 06:00:00 5,4 4,5 - - 9 5 NW 1002,1 2,4 0,0
23.04.2019 05:00:00 5,8 4,7 - - 11 6 WNW 1002,3 2,5 0,0
23.04.2019 04:00:00 6,6 5,2 - - 8 4 NW 1002,6 2,7 0,0
23.04.2019 03:00:00 7,6 5,5 - - 8 4 NNW 1002,8 3,6 0,0
23.04.2019 02:00:00 9,2 6,7 - - 11 6 NW 1003,2 4,8 0,0
23.04.2019 01:00:00 9,4 6,3 - - 9 5 NW 1003,5 5 0,0
23.04.2019 00:00:00 10,2 6,7 - - 8 4 NE 1003,8 6 0,0
22.04.2019 23:00:00 10,2 6,4 - - 13 7 ENE 1003,9 5 0,0
22.04.2019 22:00:00 10,9 6,2 - - 11 6 ENE 1004,3 5 0,0
22.04.2019 21:00:00 12,7 6,2 - - 13 7 ENE 1004,5 6 0,0
22.04.2019 20:00:00 15,4 5,8 - - 15 8 ENE 1004,4 10 0,0
22.04.2019 19:00:00 17,8 5,5 - - 15 8 E 1004,3 5 0,0
22.04.2019 18:00:00 19,6 5,4 - - 21 11 E 1004,5 9 0,0
22.04.2019 17:00:00 20,3 5,0 - - 26 14 ESE 1004,9 9 0,0
22.04.2019 16:00:00 20,8 6,6 - - 24 13 E 1005,3 8 0,0
22.04.2019 15:00:00 22,0 6,3 - - 24 13 SE 1006,0 8 0,0
22.04.2019 14:00:00 21,1 7,6 - - 16 9 SE 1006,8 8 0,0
22.04.2019 13:00:00 20,4 7,5 - - 16 9 ESE 1007,5 8 0,0
22.04.2019 12:00:00 18,4 4,8 - - 21 11 SE 1008,2 8 0,0
22.04.2019 11:00:00 17,5 3,4 - - 9 5 ESE 1008,9 10 0,0
22.04.2019 10:00:00 15,4 3,5 9,7 8,7 11 6 E 1009,6 9 0,0
22.04.2019 09:00:00 12,9 4,3 - - 11 6 E 1010,1 7 0,0
22.04.2019 08:00:00 10,0 4,0 - - 4 2 E 1010,5 7 0,0
22.04.2019 07:00:00 6,3 2,5 - - 4 2 ESE 1010,9 6 0,0
22.04.2019 06:00:00 6,8 3,2 - - 5 3 E 1011,0 7 0,0
22.04.2019 05:00:00 6,9 4,1 - - 8 4 E 1011,3 6 0,0
22.04.2019 04:00:00 7,0 3,9 - - 5 3 ESE 1011,8 6 0,0
22.04.2019 03:00:00 7,5 4,2 - - 8 4 ESE 1012,4 6 0,0
22.04.2019 02:00:00 7,1 3,1 - - 5 3 ESE 1012,9 7 0,0
22.04.2019 01:00:00 7,4 2,6 - - 2 1 E 1013,4 8 0,0
22.04.2019 00:00:00 8,9 2,7 - - 5 3 ESE 1013,8 8 0,0
21.04.2019 23:00:00 11,1 3,2 - - 11 6 ESE 1013,9 7 0,0
21.04.2019 22:00:00 12,5 3,6 - - 9 5 ESE 1014,3 9 0,0
21.04.2019 21:00:00 14,0 4,8 - - 16 9 ESE 1014,6 9 0,0
21.04.2019 20:00:00 16,7 5,8 - - 16 9 ESE 1014,8 9 0,0
21.04.2019 19:00:00 19,5 6,8 - - 22 12 ESE 1015,0 10 0,0
21.04.2019 18:00:00 21,7 4,2 - - 18 10 SE 1015,4 10 0,0
21.04.2019 17:00:00 21,9 3,4 - - 16 9 SSE 1016,2 10 0,0
21.04.2019 16:00:00 22,2 4,3 - - 21 11 SE 1017,1 14 0,0
21.04.2019 15:00:00 21,9 4,8 - - 21 11 S 1017,8 13 0,0
21.04.2019 14:00:00 21,6 5,2 - - 22 12 SSE 1018,8 12 0,0
21.04.2019 13:00:00 21,3 5,6 - - 18 10 SSE 1019,7 12 0,0
21.04.2019 12:00:00 19,8 6,8 - - 18 10 S 1020,7 10 0,0
21.04.2019 11:00:00 16,9 8,7 - - 11 6 SSE 1021,6 7 0,0
21.04.2019 10:00:00 13,9 7,8 9,5 8,7 8 4 SE 1022,4 6 0,0
21.04.2019 09:00:00 10,6 6,5 - - 8 4 SE 1023,1 5 0,0
21.04.2019 08:00:00 8,3 5,9 - - 5 3 ESE 1023,5 4,4 0,0
21.04.2019 07:00:00 4,7 4,0 - - 4 2 SE 1023,9 5 0,0
21.04.2019 06:00:00 4,1 3,2 - - 2 1 SE 1024,4 4,2 0,0
21.04.2019 05:00:00 5,8 4,4 - - 5 3 ESE 1024,9 4,4 0,0
21.04.2019 04:00:00 7,1 5,1 - - 8 4 E 1025,6 4,6 0,0
21.04.2019 03:00:00 6,8 5,4 - - 5 3 E 1026,3 5 0,0
21.04.2019 02:00:00 6,9 4,3 - - 2 1 E 1026,8 5 0,0
21.04.2019 01:00:00 9,2 6,7 - - 5 3 E 1027,3 6 0,0
21.04.2019 00:00:00 8,8 5,9 - - 4 2 NNW 1028,0 6 0,0
20.04.2019 23:00:00 11,1 6,2 - - 8 4 ESE 1028,3 8 0,0
20.04.2019 22:00:00 12,9 6,4 - - 9 5 ESE 1028,3 9 0,0
20.04.2019 21:00:00 15,2 6,2 - - 11 6 SE 1028,5 9 0,0
20.04.2019 20:00:00 17,8 6,5 - - 13 7 ESE 1028,4 10 0,0
20.04.2019 19:00:00 20,7 3,9 - - 9 5 S 1028,4 10 0,0
20.04.2019 18:00:00 21,8 4,3 - - 11 6 S 1028,9 16 0,0
20.04.2019 17:00:00 22,3 4,0 - - 9 5 S 1029,5 10 0,0
20.04.2019 16:00:00 22,2 4,6 - - 13 7 S 1029,9 10 0,0
20.04.2019 15:00:00 22,1 3,8 - - 11 6 SSE 1030,5 10 0,0
20.04.2019 14:00:00 21,0 2,6 - - 9 5 SE 1031,2 16 0,0
20.04.2019 13:00:00 20,6 6,4 - - 9 5 SSE 1031,7 12 0,0
20.04.2019 12:00:00 18,8 7,2 - - 8 4 SE 1032,4 11 0,0
20.04.2019 11:00:00 15,6 6,0 - - 4 2 S 1032,7 9 0,0
20.04.2019 10:00:00 13,3 6,8 9,2 8,4 4 2 SSE 1032,7 8 0,0
20.04.2019 09:00:00 9,7 5,5 - - 2 1 ENE 1033,0 8 0,0
20.04.2019 08:00:00 6,3 4,8 - - 2 1 NNW 1033,1 6 0,0
20.04.2019 07:00:00 4,0 3,1 - - 4 2 SSE 1032,9 6 0,0
20.04.2019 06:00:00 3,0 2,2 - - 2 1 WNW 1032,6 4,4 0,0
20.04.2019 05:00:00 3,3 2,0 - - 2 1 WNW 1032,8 4,9 0,0
20.04.2019 04:00:00 3,9 2,6 - - 4 2 W 1032,9 5 0,0
20.04.2019 03:00:00 4,6 1,9 - - 2 1 ENE 1032,9 6 0,0
20.04.2019 02:00:00 4,9 0,6 - - 4 2 N 1033,2 7 0,0
20.04.2019 01:00:00 7,7 3,9 - - 5 3 WSW 1033,3 7 0,0
20.04.2019 00:00:00 8,2 4,1 - - 5 3 S 1033,1 8 0,0
19.04.2019 23:00:00 10,0 4,3 - - 8 4 ESE 1032,9 9 0,0
19.04.2019 22:00:00 11,6 5,6 - - 5 3 E 1032,8 9 0,0
19.04.2019 21:00:00 13,5 4,0 - - 5 3 E 1032,5 10 0,0
19.04.2019 20:00:00 16,5 4,1 - - 11 6 E 1031,9 10 0,0
19.04.2019 19:00:00 18,9 4,2 - - 11 6 E 1031,4 10 0,0
19.04.2019 18:00:00 20,2 3,4 - - 18 10 ESE 1031,1 10 0,0
19.04.2019 17:00:00 20,9 4,6 - - 22 12 ESE 1030,8 10 0,0
19.04.2019 16:00:00 21,4 4,6 - - 18 10 ESE 1031,0 10 0,0
19.04.2019 15:00:00 21,9 5,4 - - 22 12 SE 1031,2 10 0,0
19.04.2019 14:00:00 20,4 9,6 - - 4 2 ENE 1031,4 10 0,0
19.04.2019 13:00:00 17,6 10,5 - - 5 3 W 1031,7 9 0,0
19.04.2019 12:00:00 15,4 8,6 - - 5 3 NE 1031,8 9 0,0
19.04.2019 11:00:00 12,9 8,1 - - 11 6 NNW 1031,9 8 0,0
19.04.2019 10:00:00 9,0 7,7 8,9 8,2 11 6 NW 1032,0 4,9 0,0
19.04.2019 09:00:00 6,8 6,0 - - 13 7 NNW 1031,9 3,8 0,0
19.04.2019 08:00:00 5,3 4,8 - - 15 8 NW 1031,5 3,4 0,0
19.04.2019 07:00:00 4,4 3,9 - - 11 6 NW 1031,1 2,9 0,0
19.04.2019 06:00:00 3,7 3,1 - - 9 5 NNW 1030,8 2,5 0,0
19.04.2019 05:00:00 4,4 3,8 - - 11 6 NW 1030,7 3,0 0,0
19.04.2019 04:00:00 4,9 4,2 - - 11 6 NW 1030,4 3,1 0,0
19.04.2019 03:00:00 4,6 4,0 - - 11 6 NW 1030,2 3,0 0,0
19.04.2019 02:00:00 5,1 4,4 - - 8 4 NW 1030,3 4,3 0,0
19.04.2019 01:00:00 4,9 3,6 - - 9 5 NW 1030,5 4,6 0,0
19.04.2019 00:00:00 5,7 4,3 - - 8 4 NNW 1030,7 6 0,0
18.04.2019 23:00:00 6,7 4,7 - - 5 3 NNW 1030,1 7 0,0
18.04.2019 22:00:00 8,2 5,7 - - 5 3 NE 1029,5 8 0,0
18.04.2019 21:00:00 9,4 6,6 - - 13 7 ENE 1028,8 8 0,0
18.04.2019 20:00:00 11,5 7,1 - - 15 8 E 1028,0 8 0,0
18.04.2019 19:00:00 13,9 6,1 - - 18 10 E 1027,3 10 0,0
18.04.2019 18:00:00 15,5 6,3 - - 24 13 E 1026,6 10 0,0
18.04.2019 17:00:00 17,5 5,2 - - 24 13 E 1026,4 10 0,0
18.04.2019 16:00:00 18,6 3,7 - - 26 14 ESE 1026,2 10 0,0
18.04.2019 15:00:00 18,7 4,7 - - 26 14 E 1026,5 10 0,0
18.04.2019 14:00:00 18,5 4,4 - - 24 13 E 1026,4 10 0,0
18.04.2019 13:00:00 17,3 8,0 - - 21 11 ENE 1026,5 8 0,0
18.04.2019 12:00:00 15,5 10,1 - - 11 6 E 1026,9 6 0,0
18.04.2019 11:00:00 14,2 10,8 - - 9 5 NNE 1027,1 5 0,0
18.04.2019 10:00:00 11,1 8,6 8,7 8,2 9 5 N 1027,4 4,0 0,0
18.04.2019 09:00:00 9,1 8,1 - - 11 6 NNW 1027,3 3,0 0,0
18.04.2019 08:00:00 7,3 7,2 - - 11 6 NNW 1027,0 2,0 0,0
18.04.2019 07:00:00 6,4 6,3 - - 13 7 N 1026,4 1,0 0,0
18.04.2019 06:00:00 6,0 5,9 - - 11 6 NW 1026,1 0,7 0,0
18.04.2019 05:00:00 5,8 5,7 - - 9 5 N 1025,5 0,1 0,0
18.04.2019 04:00:00 6,2 6,0 - - 13 7 NNW 1025,5 0,1 0,0
18.04.2019 03:00:00 6,0 5,8 - - 13 7 NNW 1025,6 0,2 0,0
18.04.2019 02:00:00 4,7 4,0 - - 9 5 NNW 1025,4 2,3 0,0
18.04.2019 01:00:00 5,6 4,7 - - 9 5 NW 1025,3 3,2 0,0
18.04.2019 00:00:00 7,5 5,6 - - 5 3 NE 1025,0 3,8 0,0
17.04.2019 23:00:00 8,7 7,1 - - 9 5 NE 1024,7 4,2 0,0
17.04.2019 22:00:00 8,8 7,0 - - 11 6 NE 1024,5 5 0,0
17.04.2019 21:00:00 9,9 7,5 - - 11 6 NE 1024,2 5 0,0
17.04.2019 20:00:00 12,1 7,9 - - 15 8 E 1023,3 10 0,0
17.04.2019 19:00:00 13,6 8,2 - - 16 9 E 1022,5 7 0,0
17.04.2019 18:00:00 15,0 8,4 - - 22 12 E 1022,1 6 0,0
17.04.2019 17:00:00 16,2 8,8 - - 16 9 ENE 1021,8 10 0,0

tt = temperature
td = dewpoint
tt -20cm = temperature -20cm
tt -100cm = temperature -100cm
ff = wind speed
dd = wind direction
ppp = reduced air pressure
vv = visibility
rr = precipitation

Next stations